Regional Weather Roundup
Issued by NWS

Home | Current Version | Previous Version | Text Only | Print | Product List | Glossary Off
Versions: 1 2 3 4 5 6 7 8 9 10 11 12 13 14 15 16 17 18 19 20 21 22 23 24 25 26 27 28 29 30 31 32 33 34 35 36 37 38 39 40 41 42 43 44 45 46 47 48 49 50

000
ASUS45 KTFX 051510
RWRMT
MONTANA REGIONAL WEATHER ROUNDUP
NATIONAL WEATHER SERVICE GREAT FALLS MT
800 AM MST FRI FEB 05 2016

NOTE: "FAIR" INDICATES FEW OR NO CLOUDS BELOW 12000 FEET WITH NO
SIGNIFICANT WEATHER AND/OR OBSTRUCTIONS TO VISIBILITY.

MTZ001>007-043-051600-
WEST OF THE DIVIDE

CITY           SKY/WX    TMP DP  RH WIND       PRES   REMARKS
KALISPELL      CLOUDY    34  27  75 S8        30.36F WCI  27
MISSOULA       CLOUDY    28  25  88 N5        30.43F
BUTTE          CLOUDY    15  10  80 NW3       30.36F
MULLAN PASS    LGT SNOW  28  24  85 VRB6      30.31R VSB 1   WCI  22
ANACONDA         N/A     27  16  63 S6        30.36F WCI  20
DEER LODGE       N/A     23  18  80 CALM      30.38S
HAMILTON         N/A     30  21  69 S13       30.41F WCI  20
LIBBY            N/A     21  19  93 CALM      30.38F
PLAINS           N/A     29  23  78 CALM      30.39F
$$

MTZ008-052>055-051600-
SOUTHWEST MONTANA

CITY           SKY/WX    TMP DP  RH WIND       PRES   REMARKS
BOZEMAN        CLOUDY    12   6  77 S7        30.39R WCI   1
DILLON         CLOUDY    22  12  65 S16       30.37F WCI   8
ENNIS          CLEAR     18  10  73 S17G23    30.45S WCI   2
THREE FORKS      N/A     24   2  38 SW6       30.33S WCI  17
TWIN BRIDGES     N/A     16   5  61 E5        30.33S
$$

MTZ009-010-012-014-046-048-049-054-051600-
EAST SLOPES AND CENTRAL MONTANA

CITY           SKY/WX    TMP DP  RH WIND       PRES   REMARKS
CUT BANK       PTCLDY    35  21  56 W21       30.10F WCI  24
GREAT FALLS    CLOUDY    32  20  61 SW21      30.18F WCI  20
MALMSTROM AFB  CLOUDY    32  22  67 SW20      30.20F WCI  20
HELENA         CLOUDY    34  20  56 W10G21    30.33F WCI  26
CHOTEAU          N/A     39  19  45 SW7G17    30.16S
CONRAD           N/A     35  23  62 SW2       30.13F
$$

MTZ011-013-016-021-045-047-050-051-051600-
NORTH CENTRAL MONTANA

CITY           SKY/WX    TMP DP  RH WIND       PRES   REMARKS
HAVRE          CLOUDY    29  20  69 SW21      30.13F WCI  16
LEWISTOWN      CLOUDY    26  16  65 SW17      30.19F WCI  13
N BAR RANCH      N/A     21  12  68 CALM      30.20F
CHINOOK          N/A     18  14  86 E5        30.14F
$$

MTZ017>020-022>027-061-062-051600-
NORTHEAST MONTANA

CITY           SKY/WX    TMP DP  RH WIND       PRES   REMARKS
GLASGOW        CLOUDY     9   5  84 S3        30.17F FOG
JORDAN           N/A     20  17  88 W6        30.20F WCI  12
SIDNEY         CLEAR     16  12  86 CALM      30.20F
WOLF POINT     CLEAR     14  11  87 SW7       30.20F WCI   4
PLENTYWOOD       N/A     14  12  92 CALM      30.13S
POPLAR           N/A     12  10  92 SW6       30.20F WCI   3
SCOBEY           N/A      8  -1  66 CALM      30.10F
$$

MTZ028>42-056>058-051600-
SOUTHCENTRAL AND SOUTHEAST MONTANA

CITY           SKY/WX    TMP DP  RH WIND       PRES   REMARKS
BAKER          PTCLDY    21  17  84 W8        30.21S WCI  11
BILLINGS       PTCLDY    30  15  53 SW17      30.26S WCI  18
LIVINGSTON     CLOUDY    28  12  51 SW31G46   30.30S WCI  12
MILES CITY     CLEAR     23  20  88 W6        30.23S WCI  16
EKALAKA          N/A     23  20  89 W9        30.16R WCI  13
FORSYTH          N/A     28  21  74 SW5       30.24F
LAUREL           N/A     23   6  48 S9        30.22S WCI  13
ROUNDUP          N/A     27  14  57 CALM      30.13S
$$

REGIONAL REPORTS...DAKOTAS

CITY           SKY/WX    TMP DP  RH WIND       PRES   REMARKS
WILLISTON      CLEAR     14  11  87 SW3       30.18S
MINOT          MOCLDY    22  14  71 W7        30.14S WCI  13
DICKINSON      CLOUDY    24  22  91 W17       30.15R WCI  11
BEACH            N/A     21  21 100 W13       30.21S WCI   9
CROSBY           N/A     14  14 100 SW8       30.16S WCI   3
TIOGA            N/A     10  10 100 SW8       30.19S WCI  -1
WATFORD CITY     N/A      9   7  92 CALM      30.19S
BISMARCK       MOCLDY    28  21  75 NW7       30.18R WCI  21
GRAND FORKS    MOCLDY    16  11  80 S5        30.13S
FARGO          CLOUDY    20  15  81 S13       30.15S WCI   7
BUFFALO SD       N/A     25  21  85 W14       30.13R WCI  13
RAPID CITY     CLEAR     29  24  82 N21       30.19R WCI  16
$$

REGIONAL REPORTS...WYOMING/IDAHO/WASHINGTON

CITY           SKY/WX    TMP DP  RH WIND       PRES   REMARKS
GILLETTE       CLEAR     25  18  74 W15       30.24R WCI  13
SHERIDAN       CLEAR     19  10  68 NW6       30.27R WCI  11
BUFFALO WY       N/A     28  10  46 N3        30.25R
CODY           CLEAR     30   9  40 W17G26    30.27S WCI  18
YELLOWSTONE LA   N/A      1  -3  83 CALM      30.38R
IDAHO FALLS    CLOUDY    16  13  88 N12       30.54R FOG     WCI   3
SALMON         CLOUDY    12  10  92 CALM      30.52S
BOISE          FOG       31  31 100 CALM      30.52F VSB 1/4
SPOKANE        MOCLDY    36  33  89 SE6       30.37F WCI  31
$$

REGIONAL REPORTS...ALBERTA

CITY           SKY/WX    TMP DP  RH WIND       PRES   REMARKS
EDMONTON       PTCLDY    21  12  68 SW8       29.83F WCI  12
CALGARY        MOCLDY    39  18  41 W13G24    29.91F WCI  32
LETHBRIDGE     MOCLDY    39  21  48 W23G32    30.03F WCI  29
MEDICINE HAT   PTCLDY    23  19  86 SW9       30.04F WCI  13
CARDSTON         N/A     39  18  41 W20G31      N/A  WCI  30
MILK RIVER       N/A     30  21  69 W15G21      N/A  WCI  19
ONEFOUR          N/A     27  19  74 SW3         N/A
$$

REGIONAL REPORTS...SASKATCHEWAN

CITY           SKY/WX    TMP DP  RH WIND       PRES   REMARKS
SWIFT CURRENT  CLEAR     23  18  80 SW16      30.02F WCI  10
REGINA         PTCLDY     7   5  92 S9        30.07F WCI  -7
SASKATOON      PTCLDY     3   1  92 S6        30.03S WCI  -8
CYPRESS HILLS    N/A     28  14  54 W6          N/A  WCI  22
VAL MARIE        N/A      5   1  85 E2          N/A
ROCKGLEN         N/A     14  12  92 W10         N/A  WCI   1
ASSINIBOIA       N/A     16  12  86 S6          N/A  WCI   7
$$



USA.gov is the U.S. government's official web portal to all federal, state and local government web resources and services.